When you browse on this site, cookies collect data to enhance your experience and personalize the content and advertising you see.
Visit our Privacy Policy to learn more. By continuing to use the site, you agree to this use of cookies and data.
  • In United Kingdom
  • List of Countries
  • For 7 days
  • Water Temperature
  • Satellite Maps
  • Weather Map
  • Weather Widgets
  • user-avatar
    Login

    Hourly Weather Vasyl'kivs'ke

    Today, 27 June, Thursday

    Time Temperature Precipitation Wind Pressure Humidity
    00:00 +18°C° 0 mm 2 mps 751 mmHg 71%
    01:00 +18°C° 0 mm 1 mps 751 mmHg 73%
    02:00 +18°C° 0 mm 1 mps 751 mmHg 76%
    03:00 +18°C° 0 mm 1 mps 751 mmHg 75%
    04:00 +19°C° 0 mm 1 mps 750 mmHg 74%
    05:00 +17°C° 0 mm 0 mps 750 mmHg 73%
    06:00 +21°C° 0 mm 1 mps 749 mmHg 67%
    07:00 +23°C° 0 mm 1 mps 749 mmHg 60%
    08:00 +25°C° 0 mm 1 mps 749 mmHg 53%
    09:00 +26°C° 0 mm 1 mps 748 mmHg 49%
    10:00 +27°C° 0 mm 2 mps 748 mmHg 45%
    11:00 +28°C° 0 mm 2 mps 747 mmHg 42%
    12:00 +29°C° 0 mm 2 mps 747 mmHg 41%
    13:00 +30°C° 0 mm 3 mps 746 mmHg 41%
    14:00 +30°C° 0 mm 3 mps 745 mmHg 40%
    15:00 +30°C° 0 mm 4 mps 744 mmHg 43%
    16:00 +30°C° 0 mm 5 mps 744 mmHg 45%
    17:00 +29°C° 0 mm 5 mps 743 mmHg 47%
    18:00 +28°C° 0 mm 5 mps 742 mmHg 50%
    19:00 +26°C° 0 mm 4 mps 742 mmHg 53%
    20:00 +23°C° 0 mm 4 mps 741 mmHg 56%
    21:00 +23°C° 0.3 mm 4 mps 741 mmHg 60%
    22:00 +22°C° 0.3 mm 5 mps 740 mmHg 64%
    23:00 +22°C° 0.3 mm 5 mps 740 mmHg 69%

    Tomorrow, 28 June, Friday

    Time Temperature Precipitation Wind Pressure Humidity
    00:00 +21°C° 0.2 mm 5 mps 740 mmHg 77%
    01:00 +21°C° 0.2 mm 4 mps 739 mmHg 86%
    02:00 +20°C° 0.2 mm 4 mps 739 mmHg 94%
    03:00 +20°C° 0 mm 4 mps 739 mmHg 93%
    04:00 +20°C° 0 mm 5 mps 739 mmHg 92%
    05:00 +19°C° 0 mm 5 mps 739 mmHg 91%
    06:00 +20°C° 0 mm 5 mps 739 mmHg 86%
    07:00 +20°C° 0 mm 6 mps 739 mmHg 80%
    08:00 +21°C° 0 mm 6 mps 739 mmHg 75%
    09:00 +22°C° 0 mm 6 mps 739 mmHg 69%
    10:00 +22°C° 0 mm 6 mps 739 mmHg 63%
    11:00 +23°C° 0 mm 7 mps 739 mmHg 57%
    12:00 +23°C° 0 mm 7 mps 739 mmHg 55%
    13:00 +23°C° 0 mm 7 mps 740 mmHg 53%
    14:00 +23°C° 0 mm 7 mps 740 mmHg 51%
    15:00 +23°C° 0 mm 7 mps 740 mmHg 52%
    16:00 +22°C° 0 mm 7 mps 740 mmHg 53%
    17:00 +21°C° 0 mm 7 mps 740 mmHg 55%
    18:00 +20°C° 0 mm 6 mps 740 mmHg 59%
    19:00 +17°C° 0 mm 5 mps 741 mmHg 64%
    20:00 +15°C° 0 mm 4 mps 741 mmHg 69%
    21:00 +15°C° 0 mm 4 mps 741 mmHg 73%
    22:00 +14°C° 0 mm 4 mps 742 mmHg 76%
    23:00 +13°C° 0 mm 4 mps 742 mmHg 80%

    Day after tomorrow, 29 June, Saturday

    Time Temperature Precipitation Wind Pressure Humidity
    00:00 +12°C° 0 mm 4 mps 742 mmHg 83%
    01:00 +12°C° 0 mm 4 mps 742 mmHg 86%
    02:00 +11°C° 0 mm 4 mps 742 mmHg 90%
    03:00 +11°C° 0 mm 4 mps 742 mmHg 88%
    04:00 +12°C° 0 mm 4 mps 742 mmHg 87%
    05:00 +12°C° 0 mm 5 mps 742 mmHg 85%
    06:00 +13°C° 0 mm 5 mps 742 mmHg 76%
    07:00 +15°C° 0 mm 6 mps 742 mmHg 68%
    08:00 +16°C° 0 mm 6 mps 743 mmHg 59%
    09:00 +17°C° 0 mm 7 mps 743 mmHg 53%
    10:00 +18°C° 0 mm 7 mps 743 mmHg 48%
    11:00 +20°C° 0 mm 7 mps 743 mmHg 42%
    12:00 +20°C° 0 mm 7 mps 743 mmHg 42%
    13:00 +21°C° 0 mm 7 mps 743 mmHg 41%
    14:00 +21°C° 0 mm 6 mps 743 mmHg 41%
    15:00 +20°C° 0 mm 6 mps 743 mmHg 42%
    16:00 +20°C° 0 mm 6 mps 744 mmHg 44%
    17:00 +19°C° 0 mm 5 mps 744 mmHg 45%
    18:00 +17°C° 0 mm 4 mps 744 mmHg 50%
    19:00 +16°C° 0 mm 3 mps 744 mmHg 54%
    20:00 +14°C° 0 mm 2 mps 745 mmHg 59%
    21:00 +13°C° 0 mm 2 mps 745 mmHg 63%
    22:00 +13°C° 0 mm 2 mps 745 mmHg 67%
    23:00 +12°C° 0 mm 2 mps 745 mmHg 71%

    30 June, Sunday

    Time Temperature Precipitation Wind Pressure Humidity
    00:00 +10°C° 0 mm 2 mps 745 mmHg 74%
    01:00 +10°C° 0 mm 2 mps 745 mmHg 77%
    02:00 +10°C° 0 mm 2 mps 745 mmHg 81%
    03:00 +10°C° 0 mm 2 mps 745 mmHg 81%
    04:00 +10°C° 0 mm 3 mps 745 mmHg 80%
    05:00 +11°C° 0 mm 3 mps 745 mmHg 80%
    06:00 +13°C° 0 mm 3 mps 745 mmHg 73%
    07:00 +14°C° 0 mm 3 mps 745 mmHg 65%
    08:00 +17°C° 0 mm 4 mps 745 mmHg 58%
    09:00 +19°C° 0 mm 4 mps 745 mmHg 52%
    10:00 +20°C° 0 mm 4 mps 745 mmHg 47%
    11:00 +21°C° 0 mm 4 mps 745 mmHg 41%
    12:00 +21°C° 0 mm 4 mps 745 mmHg 42%
    13:00 +21°C° 0 mm 5 mps 745 mmHg 44%
    14:00 +20°C° 0 mm 5 mps 745 mmHg 45%
    15:00 +20°C° 0 mm 5 mps 745 mmHg 45%
    16:00 +20°C° 0 mm 5 mps 745 mmHg 46%
    17:00 +20°C° 0 mm 5 mps 746 mmHg 46%
    18:00 +18°C° 0 mm 4 mps 746 mmHg 54%
    19:00 +16°C° 0 mm 3 mps 746 mmHg 61%
    20:00 +13°C° 0 mm 3 mps 747 mmHg 69%
    21:00 +13°C° 0 mm 3 mps 747 mmHg 70%
    22:00 +13°C° 0 mm 3 mps 747 mmHg 70%
    23:00 +13°C° 0 mm 3 mps 747 mmHg 71%

    1 July, Monday

    Time Temperature Precipitation Wind Pressure Humidity
    00:00 +13°C° 0 mm 3 mps 747 mmHg 69%
    01:00 +13°C° 0 mm 3 mps 747 mmHg 68%
    02:00 +13°C° 0 mm 4 mps 748 mmHg 67%
    03:00 +13°C° 0 mm 3 mps 748 mmHg 70%
    04:00 +12°C° 0 mm 3 mps 748 mmHg 73%
    05:00 +12°C° 0 mm 3 mps 748 mmHg 76%
    06:00 +13°C° 0 mm 3 mps 748 mmHg 73%
    07:00 +15°C° 0 mm 4 mps 748 mmHg 69%
    08:00 +16°C° 0 mm 5 mps 748 mmHg 66%
    09:00 +17°C° 0.2 mm 5 mps 747 mmHg 64%
    10:00 +19°C° 0.2 mm 5 mps 747 mmHg 62%
    11:00 +21°C° 0.2 mm 5 mps 747 mmHg 60%
    12:00 +22°C° 0.2 mm 5 mps 747 mmHg 57%
    13:00 +23°C° 0.2 mm 5 mps 747 mmHg 54%
    14:00 +25°C° 0.2 mm 5 mps 747 mmHg 50%
    15:00 +25°C° 0 mm 5 mps 747 mmHg 51%
    16:00 +25°C° 0 mm 5 mps 747 mmHg 51%
    17:00 +25°C° 0 mm 5 mps 747 mmHg 51%
    18:00 +22°C° 0 mm 4 mps 747 mmHg 58%
    19:00 +20°C° 0 mm 3 mps 747 mmHg 65%
    20:00 +18°C° 0 mm 2 mps 747 mmHg 71%
    21:00 +18°C° 0 mm 2 mps 746 mmHg 73%
    22:00 +17°C° 0 mm 2 mps 746 mmHg 74%
    23:00 +17°C° 0 mm 2 mps 746 mmHg 75%

    2 July, Tuesday

    Time Temperature Precipitation Wind Pressure Humidity
    00:00 +17°C° 0.4 mm 2 mps 746 mmHg 79%
    01:00 +16°C° 0.4 mm 3 mps 745 mmHg 84%
    02:00 +16°C° 0.4 mm 3 mps 745 mmHg 88%
    03:00 +17°C° 0.7 mm 4 mps 745 mmHg 89%
    04:00 +17°C° 0.7 mm 4 mps 744 mmHg 91%
    05:00 +17°C° 0.7 mm 5 mps 744 mmHg 92%
    06:00 +20°C° 0.2 mm 5 mps 744 mmHg 88%
    07:00 +21°C° 0.2 mm 5 mps 743 mmHg 84%
    08:00 +23°C° 0.2 mm 5 mps 743 mmHg 80%
    09:00 +25°C° 0.3 mm 5 mps 743 mmHg 73%
    10:00 +27°C° 0.3 mm 6 mps 743 mmHg 67%
    11:00 +28°C° 0.3 mm 7 mps 743 mmHg 60%
    12:00 +29°C° 0.4 mm 7 mps 743 mmHg 59%
    13:00 +29°C° 0.4 mm 7 mps 743 mmHg 58%
    14:00 +29°C° 0.4 mm 6 mps 742 mmHg 57%
    15:00 +28°C° 0.2 mm 7 mps 743 mmHg 58%
    16:00 +28°C° 0.2 mm 7 mps 743 mmHg 58%
    17:00 +27°C° 0.2 mm 7 mps 743 mmHg 58%
    18:00 +26°C° 0 mm 6 mps 743 mmHg 59%
    19:00 +23°C° 0 mm 5 mps 743 mmHg 61%
    20:00 +21°C° 0 mm 5 mps 744 mmHg 62%
    21:00 +20°C° 0 mm 5 mps 744 mmHg 67%
    22:00 +19°C° 0 mm 4 mps 744 mmHg 71%
    23:00 +18°C° 0 mm 4 mps 744 mmHg 75%
    Show more